5NAAT WIKK-WMKI

Flight info

Callsign 5NAAT
Flight time N/A
Altitude 10000
Route KIRDA W26 TPG A464 SJ B469 AKOMA Y339 AROSO Y513 KALIL Y501 OGANA G582 VBA B466 SUKAT A457 TEPUS TEPUS2E
Aircraft BE36/L-BDFGLORY/S

Departure

Time N/A
Airport Depati Amir Airport (WIKK)

Arrival

Time 2026-04-12 12:26
Airport Sultan Azlan Shah Airport (WMKI)
Time Latitude Longitude Altitude Speed Heading
2026-04-12 12:22 4.50932 101.04025 1468 ft 78 kts 42°
2026-04-12 12:23 4.51380 101.04405 1386 ft 98 kts 41°
2026-04-12 12:23 4.51929 101.04889 1276 ft 109 kts 41°
2026-04-12 12:23 4.52510 101.05403 1123 ft 113 kts 42°
2026-04-12 12:23 4.53057 101.05889 1008 ft 90 kts 43°
2026-04-12 12:24 4.53470 101.06293 825 ft 80 kts 43°
2026-04-12 12:24 4.53878 101.06667 716 ft 81 kts 39°
2026-04-12 12:24 4.54304 101.07036 614 ft 80 kts 42°
2026-04-12 12:24 4.54738 101.07411 507 ft 84 kts 40°
2026-04-12 12:25 4.55201 101.07805 424 ft 90 kts 40°
2026-04-12 12:25 4.55674 101.08227 323 ft 92 kts 41°
2026-04-12 12:25 4.56161 101.08644 193 ft 93 kts 41°
2026-04-12 12:25 4.56631 101.09065 118 ft 80 kts 40°
2026-04-12 12:26 4.56849 101.09248 121 ft 19 kts 36°
2026-04-12 12:26 4.56897 101.09295 120 ft 7 kts 45°
2026-04-12 12:26 4.56923 101.09332 124 ft 7 kts 84°
2026-04-12 12:26 4.56894 101.09367 124 ft 8 kts 129°
2026-04-12 12:27 4.56852 101.09412 125 ft 10 kts 131°
2026-04-12 12:27 4.56801 101.09472 124 ft 10 kts 118°
2026-04-12 12:27 4.56781 101.09505 123 ft 8 kts 136°
2026-04-12 12:27 4.56769 101.09517 126 ft 0 kts 135°